This is the latest recevied weather packets stored in our database for station/object YM7KGL-1. If no packets are shown the sender has not sent any weather packets the latest 10 day(s).
| Time | Temp. | Humidity | Pressure | Rain* | Wind** | Luminosity | Snow |
|---|---|---|---|---|---|---|---|
| 1777585837 | 16.11° C | 50% | 1015 hPa | - | - | - | - |
| 1777579969 | 16.67° C | 49% | 1014.9 hPa | - | - | - | - |
| 1777576896 | 16.67° C | 49% | 1015.1 hPa | - | - | - | - |
| 1777573146 | 17.22° C | 49% | 1015.6 hPa | - | - | - | - |
| 1777571514 | 17.78° C | 48% | 1015.6 hPa | - | - | - | - |
| 1777570445 | 17.22° C | 48% | 1015.7 hPa | - | - | - | - |
| 1777568587 | 18.33° C | 47% | 1015.5 hPa | - | - | - | - |
| 1777563179 | 18.89° C | 48% | 1015.4 hPa | - | - | - | - |
| 1777562279 | 18.89° C | 47% | 1015.5 hPa | - | - | - | - |
| 1777562070 | 18.89° C | 48% | 1015.5 hPa | - | - | - | - |
| 1777560269 | 20° C | 47% | 1015.5 hPa | - | - | - | - |
| 1777559369 | 20.56° C | 47% | 1015.6 hPa | - | - | - | - |
| 1777558093 | 21.67° C | 47% | 1016.1 hPa | - | - | - | - |
| 1777556669 | 21.67° C | 46% | 1015.9 hPa | - | - | - | - |
| 1777555769 | 21.67° C | 46% | 1016.1 hPa | - | - | - | - |
| 1777554869 | 21.67° C | 47% | 1016.1 hPa | - | - | - | - |
| 1777552174 | 21.67° C | 46% | 1016.6 hPa | - | - | - | - |
| 1777551274 | 21.67° C | 47% | 1016.7 hPa | - | - | - | - |
| 1777550998 | 21.67° C | 46% | 1016.8 hPa | - | - | - | - |
| 1777550098 | 22.22° C | 46% | 1016.9 hPa | - | - | - | - |
| 1777549198 | 22.22° C | 46% | 1017.2 hPa | - | - | - | - |
| 1777548174 | 23.33° C | 46% | 1017.5 hPa | - | - | - | - |
| 1777547397 | 23.33° C | 46% | 1017.5 hPa | - | - | - | - |
| 1777547036 | 23.33° C | 46% | 1017.7 hPa | - | - | - | - |
| 1777546219 | 23.33° C | 46% | 1017.9 hPa | - | - | - | - |
* Rain since midnight (hover to see other rain measurements)
** Current wind speed in m/s (hover to see current wind gust speed)